DateTimeUTC,F1_A11,F1_S11,BsB_S11,BsG_S11,BsR_S11,BbsB_S11,BbsG_S11,BbsR_S11,BaB_A11,BaG_A11,BaR_A11,Tu_S11,T_S11,Uu_S11,U_S11,P_S11,T1_A11
2021-03-14T13:00:00Z,00000200,21000000,,,,,,,0000.68,0000.66,0000.34,16.3,23.8,,00.0,0641.1,30.9
2021-03-14T13:01:00Z,00000200,21000000,,,,,,,-000.13,-000.29,0000.15,16.3,23.9,,00.0,0641.1,30.9
2021-03-14T13:02:00Z,00000200,21000000,,,,,,,0000.27,0000.08,-000.29,16.3,23.9,,00.0,0641.1,30.9
2021-03-14T13:03:00Z,00000200,61000000,,,,,,,0000.13,0000.29,0000.37,16.4,23.9,,00.0,0641.2,30.9
2021-03-14T13:04:00Z,00000200,41000000,-000.24,0000.19,0000.06,-000.13,0000.00,-000.07,0000.36,0000.14,-000.06,16.8,23.8,,00.0,0642.1,30.9
2021-03-14T13:05:00Z,00000200,01000000,-000.26,0000.10,0000.07,-000.15,0000.01,0000.06,-000.03,0000.48,0000.01,16.8,23.8,,00.0,0642.2,30.9
2021-03-14T13:06:00Z,00000200,01000000,0000.23,0000.21,0000.27,0000.30,0000.11,0000.17,-000.00,-000.26,0000.07,16.8,23.8,,00.0,0642.2,30.9
2021-03-14T13:07:00Z,00000200,01000000,-000.16,0000.14,0000.29,0000.12,-000.16,-000.12,-000.21,-000.16,0000.01,16.7,23.8,,00.0,0642.2,30.9
2021-03-14T13:08:00Z,00000200,01000000,0000.19,0000.08,0000.15,-000.17,0000.15,-000.08,0000.28,0000.20,-000.07,16.7,23.8,,00.0,0642.2,30.9
2021-03-14T13:09:00Z,00000200,01000000,0000.37,0000.31,0000.04,-000.10,-000.01,0000.17,-000.38,-000.29,0000.19,16.7,23.7,,00.0,0642.2,30.9
2021-03-14T13:10:00Z,00000200,01000000,0000.14,0000.02,0000.08,-000.14,0000.12,0000.22,-000.11,-000.23,-000.47,16.6,23.7,,00.0,0642.3,30.9
2021-03-14T13:11:00Z,00000200,01000000,0000.12,0000.33,0000.16,0000.27,-000.29,0000.09,0000.37,-000.31,0000.32,16.6,23.7,,00.0,0642.3,30.9
2021-03-14T13:12:00Z,00000200,01000000,0000.66,0000.09,0000.25,0000.10,-000.08,-000.14,-000.50,0000.79,0000.10,16.6,23.7,,00.0,0642.3,30.8
2021-03-14T13:13:00Z,00000200,01000000,0000.75,0000.03,-000.01,-000.18,0000.18,0000.07,0000.51,0000.22,-000.14,16.6,23.7,,00.0,0642.3,30.8
2021-03-14T13:14:00Z,00000200,01000000,0000.43,0000.36,0000.23,0000.20,0000.06,0000.03,0000.27,0000.25,0000.51,16.7,23.7,,00.0,0642.3,30.9
2021-03-14T13:15:00Z,00000200,01000000,0000.70,0000.22,0000.16,-000.07,0000.03,0000.03,0001.12,0000.68,0000.73,16.8,23.7,,00.0,0642.2,30.9
2021-03-14T13:16:00Z,00000200,01000000,0000.48,-000.02,0000.20,0000.19,0000.07,-000.03,0000.32,0000.34,0000.27,16.8,23.8,,00.0,0642.2,30.9
2021-03-14T13:17:00Z,00000200,01000000,0000.15,0000.05,0000.07,0000.12,0000.06,-000.02,0000.49,0000.58,0000.42,16.9,23.8,,00.0,0642.2,30.9
2021-03-14T13:18:00Z,00000200,01000000,0000.40,0000.11,0000.21,-000.32,0000.09,0000.16,0000.24,0000.08,-000.15,16.9,23.8,,00.0,0642.2,30.9
2021-03-14T13:19:00Z,00000200,01000000,0000.64,0000.23,-000.03,0000.09,0000.15,0000.19,-000.06,0000.00,0000.08,16.9,23.8,,00.0,0642.2,30.9
2021-03-14T13:20:00Z,00000200,01000000,0000.31,0000.12,0000.54,-000.05,0000.13,0000.30,0000.36,0000.78,0000.42,16.9,23.8,,00.0,0642.2,30.9
2021-03-14T13:21:00Z,00000200,01000000,0001.25,0000.34,0000.28,-000.03,-000.01,0000.04,0000.36,-000.23,0000.11,16.8,23.7,,00.0,0642.3,30.9
2021-03-14T13:22:00Z,00000200,01000000,0000.14,0000.05,0000.07,0000.46,0000.37,0000.09,0000.03,0000.18,-000.15,16.8,23.7,,00.0,0642.3,30.9
2021-03-14T13:23:00Z,00000200,01000000,0000.14,0000.20,0000.33,0000.09,0000.07,-000.00,0000.39,-000.15,0000.33,16.7,23.7,,00.0,0642.4,30.9
2021-03-14T13:24:00Z,00000200,01000000,0001.04,0000.07,0000.05,-000.19,-000.06,0000.04,0000.13,0000.24,0000.26,16.7,23.7,,00.0,0642.4,30.8
2021-03-14T13:25:00Z,00000200,01000000,0000.24,0000.11,0000.15,-000.19,0000.06,0000.22,0000.03,0000.38,-000.63,16.6,23.7,,00.0,0642.4,30.8
2021-03-14T13:26:00Z,00000200,01000000,0000.56,0000.34,0000.30,-000.37,0000.09,-000.12,-000.02,-000.31,0000.55,16.6,23.7,,00.0,0642.4,30.8
2021-03-14T13:27:00Z,00000200,01000000,0000.46,0000.33,0000.21,0000.21,0000.02,-000.06,0000.33,0000.74,0000.23,16.6,23.6,,00.0,0642.4,30.8
2021-03-14T13:28:00Z,00000200,01000000,0000.96,0000.31,0000.16,0000.00,0000.17,0000.11,0000.46,0000.19,0000.34,16.7,23.6,,00.0,0642.4,30.8
2021-03-14T13:29:00Z,00000200,01000000,0000.27,0000.21,0000.03,0000.08,0000.13,0000.10,0000.26,0000.57,0000.27,16.7,23.7,,00.0,0642.4,30.9
2021-03-14T13:30:00Z,00000200,01000000,0000.35,0000.26,0000.03,-000.27,0000.20,0000.08,0000.58,0000.08,0000.10,16.8,23.7,,00.0,0642.4,30.9
2021-03-14T13:31:00Z,00000200,01000000,0000.29,0000.26,0000.19,0000.03,-000.18,0000.09,-000.11,0000.15,-000.01,16.9,23.7,,00.0,0642.4,30.9
2021-03-14T13:32:00Z,00000200,01000000,0000.06,-000.09,-000.02,-000.29,0000.02,-000.04,-000.28,-000.41,-000.00,17.0,23.8,,00.0,0642.4,30.9
2021-03-14T13:33:00Z,00000200,01000000,0000.25,0000.27,0000.07,-000.25,-000.06,0000.15,0000.02,0000.26,-000.29,17.0,23.8,,00.0,0642.4,30.9
2021-03-14T13:34:00Z,00000200,01000000,0023.90,0026.06,0025.38,0003.98,0004.54,0005.08,0093.80,0090.94,0077.06,17.0,23.8,00.8,00.5,0642.5,30.9
2021-03-14T13:35:00Z,00000200,00000000,0002.79,0002.53,0002.72,0000.73,0000.48,0000.68,0005.70,0004.85,0005.04,17.0,23.8,13.9,09.1,0642.8,30.9
2021-03-14T13:36:00Z,00000200,00000000,0001.25,0000.80,0000.75,0000.36,0000.15,0000.24,-004.40,-004.09,-003.35,17.0,23.8,10.1,06.6,0642.8,30.9
2021-03-14T13:37:00Z,00000200,00000000,0000.72,0000.54,0000.60,0000.18,0000.09,0000.04,-004.48,-004.21,-002.78,16.9,23.8,06.9,04.5,0642.8,30.9
2021-03-14T13:38:00Z,00000200,00000000,0000.66,0000.40,0000.58,-000.52,0000.11,0000.12,-002.91,-002.80,-001.94,16.9,23.8,04.6,03.0,0642.8,30.9
2021-03-14T13:39:00Z,00000200,00000000,-000.01,0000.56,0000.45,0000.49,0000.05,-000.01,-002.45,-002.66,-001.94,16.8,23.8,03.2,02.1,0642.8,30.9
2021-03-14T13:40:00Z,00000200,01000000,0000.59,0000.54,0000.26,0000.24,0000.15,0000.04,-002.06,-001.77,-001.14,16.8,23.8,02.1,01.4,0642.8,30.9
2021-03-14T13:41:00Z,00000200,01000000,0000.49,0000.51,0000.36,0000.02,0000.25,-000.08,-001.09,-001.06,-000.96,16.8,23.7,01.6,01.0,0642.8,30.8
2021-03-14T13:42:00Z,00000200,01000000,0000.39,0000.29,0000.37,0000.04,-000.02,0000.25,-002.33,-002.08,-001.49,16.8,23.7,00.9,00.6,0642.8,30.9
2021-03-14T13:43:00Z,00000200,01000000,0001.17,-000.04,-000.09,0000.18,0000.20,0000.11,-001.51,-001.44,-000.54,16.8,23.7,00.4,00.3,0642.7,30.9
2021-03-14T13:44:00Z,00000200,01000000,0000.42,0000.44,0000.28,0000.56,0000.09,0000.09,-001.98,-002.20,-002.14,16.9,23.7,00.1,00.0,0642.7,30.9
2021-03-14T13:45:00Z,00000200,01000000,0000.68,0000.22,0000.30,0000.00,-000.18,0000.21,-001.69,-001.21,-000.84,16.9,23.8,,00.0,0642.7,30.9
2021-03-14T13:46:00Z,00000200,01000000,-000.01,0000.32,0000.09,0000.27,0000.25,0000.06,-002.32,-002.56,-001.80,17.0,23.8,,00.0,0642.7,30.9
2021-03-14T13:47:00Z,00000200,01000000,-000.01,0000.05,0000.23,-000.30,-000.11,0000.00,-002.51,-002.16,-001.82,17.0,23.8,,00.0,0642.8,30.9
2021-03-14T13:48:00Z,00000200,01000000,-000.06,0000.28,0000.19,0000.15,0000.10,0000.08,-001.51,-001.77,-000.87,17.1,23.9,,00.0,0642.7,30.9
2021-03-14T13:49:00Z,00000200,01000000,0000.43,0000.36,0000.26,-000.26,0000.10,0000.25,-001.65,-001.30,-001.17,17.0,23.9,,00.0,0642.7,30.9
2021-03-14T13:50:00Z,00000200,01000000,-000.04,0000.04,0000.20,0000.05,-000.03,0000.22,-001.29,-000.99,-000.68,17.0,23.8,,00.0,0642.8,30.9
2021-03-14T13:51:00Z,00000200,01000000,0000.64,0000.08,0000.43,-000.25,0000.09,0000.18,-001.15,-001.22,-000.86,17.0,23.9,,00.0,0642.8,30.9
2021-03-14T13:52:00Z,00000200,01000000,0000.44,0000.31,0000.26,0000.57,0000.18,0000.11,-000.25,0000.07,0000.30,17.0,23.8,,00.0,0642.8,30.9
2021-03-14T13:53:00Z,00000200,01000000,0000.57,0000.39,0000.38,0000.67,0000.07,0000.16,-000.42,-000.92,-000.48,16.9,23.8,,00.0,0642.8,30.9
2021-03-14T13:54:00Z,00000200,01000000,0000.46,0000.49,0000.04,-000.05,0000.07,-000.11,0000.48,0000.78,0000.23,16.9,23.8,,00.0,0642.8,30.9
2021-03-14T13:55:00Z,00000200,01000000,0000.32,0000.37,-000.07,-000.01,-000.13,0000.05,-000.64,-000.88,-000.36,16.9,23.8,,00.0,0642.8,30.9
2021-03-14T13:56:00Z,00000200,01000000,0000.65,0000.06,0000.20,-000.03,0000.12,-000.12,0000.07,0000.35,0000.07,16.9,23.8,,00.0,0642.8,30.9
2021-03-14T13:57:00Z,00000200,41000000,,,,,,,0001.74,0002.04,0001.58,17.0,23.8,,00.0,0642.9,30.9
2021-03-14T13:58:00Z,00000200,61000000,,,,,,,-000.72,-001.20,-001.02,16.6,23.9,,00.0,0641.8,30.9
2021-03-14T13:59:00Z,00000200,21000000,,,,,,,-000.10,-000.38,-000.08,16.6,24.0,,00.0,0641.8,30.9
